Location: Rumah Dana
(3.1167°N, 113.0167°E)
Time: 04:44:35
(UTC+00:00)

Spot 4 Rocket - Pass Details

Date: 20 January 2026
Orbit: 768 x 774 km, 98.8° (Epoch: 11 February)

Event Time Altitude Azimuth Distance (km) Brightness Sun altitude
Rises 11:08:12 0° 156° (SSE) 3,245 7.2 -7.9°
Reaches altitude 10° 11:10:35 10° 150° (SSE) 2,317 6.4 -8.5°
Maximum altitude 11:15:29 47° 77° (ENE) 1,019 4.2 -9.6°
Drops below altitude 10° 11:20:21 10° 4° (N) 2,310 6.3 -10.8°
Sets 11:22:43 0° 358° (N) 3,235 7.1 -11.3°
